Location: Saratoga Springs
(43.0831°N, 73.7850°W)
Time: 06:04:58
(UTC-04:00)

Vanguard 2 - Pass Details

Date: 22 April 2024
Orbit: 553 x 2914 km, 32.9° (Epoch: 17 May)

Event Time Altitude Azimuth Distance (km) Brightness Sun altitude
Rises 05:43:39 0° 269° (W) 6,431 - -3.9°
Exits shadow 05:43:54 - 269° (W) 6,379 11.6 -3.8°
Reaches altitude 10° 05:47:49 10° 265° (W) 5,577 11.3 -3.1°
Maximum altitude 06:04:33 54° 195° (SSW) 3,286 10.6 -0.2°
Drops below altitude 10° 06:19:23 10° 124° (SE) 4,988 12.3 2.4°
Sets 06:22:52 0° 120° (ESE) 5,737 12.8 3.0°
